Powrót do katalogu

DELTA 1 DEB

AktywnyPO
NORAD 21458·DEBRIS·🇺🇸 United States

Wystrzelony Jun 12, 1975 z Vandenberg Space Force Base

Loading…

Następne Przeloty (najbliższe 24 godziny)

TLE

ŚwieżeSource: Space-Track

Epoka: Sep 14, 2026, 10:27 UTC

1 21458U 75052ES  26257.43556743  .00000071  00000-0  40714-3 0  9995
2 21458  99.7705  82.0562 0562372 151.4918 244.3016 12.44574463604679

Śledź DELTA 1 DEB w czasie rzeczywistym z AllMySat

Download on the App Store